This is the latest recevied weather packets stored in our database for station/object KB9ZI. If no packets are shown the sender has not sent any weather packets the latest 1 day(s).
| Time | Temp. | Humidity | Pressure | Rain* | Wind** | Luminosity | Snow |
|---|---|---|---|---|---|---|---|
| 1777996251 | 8.89° C | 50% | 1010.8 hPa | 0 mm | 0 m/s | - | - |
| 1777996123 | 9.44° C | 48% | 1010.9 hPa | 0 mm | 0 m/s | - | - |
| 1777996003 | 9.44° C | 50% | 1010.8 hPa | 0 mm | 0 m/s | - | - |
| 1777995935 | 8.33° C | 47% | 1010.8 hPa | 0 mm | 0 m/s | - | - |
| 1777995752 | 8.89° C | 47% | 1010.7 hPa | 0 mm | 0 m/s | - | - |
| 1777995631 | 8.89° C | 50% | 1010.8 hPa | 0 mm | 0 m/s | - | - |
| 1777995512 | 8.89° C | 50% | 1010.8 hPa | 0 mm | 0 m/s | - | - |
| 1777995376 | 8.89° C | 50% | 1010.8 hPa | 0 mm | 0 m/s | - | - |
| 1777995250 | 8.33° C | 50% | 1010.8 hPa | 0 mm | 0 m/s | - | - |
| 1777995129 | 8.33° C | 47% | 1010.9 hPa | 0 mm | 0 m/s | - | - |
| 1777995011 | 8.89° C | 51% | 1010.8 hPa | 0 mm | 0 m/s | - | - |
| 1777994948 | 8.89° C | 51% | 1010.8 hPa | 0 mm | 0 m/s | - | - |
| 1777994736 | 8.89° C | 50% | 1010.8 hPa | 0 mm | 0 m/s | - | - |
| 1777994615 | 8.89° C | 50% | 1010.9 hPa | 0 mm | 0 m/s | - | - |
| 1777994479 | 8.89° C | 54% | 1010.8 hPa | 0 mm | 0 m/s | - | - |
| 1777994351 | 8.33° C | 54% | 1010.7 hPa | 0 mm | 0 m/s | - | - |
| 1777994230 | 8.33° C | 54% | 1010.8 hPa | 0 mm | 0 m/s | - | - |
| 1777994110 | 8.33° C | 48% | 1010.7 hPa | 0 mm | 0 m/s | - | - |
| 1777993990 | 8.33° C | 51% | 1010.8 hPa | 0 mm | 0 m/s | - | - |
| 1777993929 | 8.33° C | 50% | 1010.7 hPa | 0 mm | 0 m/s | - | - |
| 1777993750 | 8.33° C | 51% | 1010.7 hPa | 0 mm | 0 m/s | - | - |
| 1777993632 | 7.78° C | 50% | 1010.7 hPa | 0 mm | 0 m/s | - | - |
| 1777993511 | 7.78° C | 51% | 1010.7 hPa | 0 mm | 0 m/s | - | - |
| 1777993391 | 7.78° C | 54% | 1010.8 hPa | 0 mm | 0 m/s | - | - |
| 1777993264 | 7.78° C | 53% | 1010.7 hPa | 0 mm | 0 m/s | - | - |
* Rain latest hour (hover to see other rain measurements)
** Current wind speed in m/s (hover to see current wind gust speed)